Location: Marysville Observatory
(48.1092°N, 122.1645°W)
Time: 15:59:26
(UTC-07:00)

Daily predictions for brighter satellites

Satellite Brightness Start Highest point End
(mag) Time Altitude Azimuth Time Altitude Azimuth Time Altitude Azimuth
Nadezhda 2 Rocket 4.5 21:43:19 10° S 21:49:25 76° E 21:55:32 10° NNE
deb Chang Zheng 4 3.7 21:45:47 10° NNE 21:50:09 81° WNW 21:54:29 10° SSW
ARGOS 3.6 21:46:04 10° SE 21:51:15 50° ENE 21:56:26 10° N
Cosmos 1937 Rocket 4.3 21:47:15 10° SSE 21:51:51 32° ESE 21:56:27 10° NE
PSLV R/B 3.2 21:50:57 10° SSE 21:54:00 82° WSW 21:57:04 10° NNW
NOSS 3-1 (C) 3.5 21:48:29 10° SSW 21:54:17 60° ESE 22:00:48 10° NE
COSMOS 2455 3.9 21:48:50 10° NNW 21:54:23 36° NE 21:59:55 10° ESE
Cosmos 2297 Rocket 3.7 21:51:03 10° SE 21:54:34 17° E 21:58:05 10° ENE
Cosmos 2219 Rocket 2.3 21:49:00 10° NNW 21:54:36 69° ENE 22:00:11 10° SE
COSMOS 2428 3.1 21:49:30 10° NNW 21:55:08 66° WSW 22:00:46 10° SSE
Nimbus 7 Rocket 4.4 21:53:41 10° NNE 21:59:35 87° ESE 22:05:28 10° SSW
Sich 1 3.3 21:56:18 10° S 22:00:34 51° E 22:04:50 10° NNE
Meteor 1-4 Rocket 2.8 21:57:55 10° N 22:01:40 59° ENE 22:05:17 10° SSE
Cosmos 1939 Rocket 4.1 21:58:25 10° SSW 22:02:04 38° W 22:05:43 10° NNW
Cosmos 2298 Rocket 4.1 21:58:30 10° S 22:03:45 64° ESE 22:09:02 10° NNE
Cosmos 2242 Rocket 3.7 22:00:05 10° N 22:04:33 63° ENE 22:09:01 10° SSE
Cosmos 1633 Rocket 3.2 22:02:53 10° S 22:07:09 56° E 22:11:27 10° NNE
CZ-4B R/B 3.8 22:02:50 10° NNE 22:08:01 54° E 22:13:05 10° S
Meteor 2-10 4.5 22:02:30 10° N 22:08:10 60° ENE 22:13:50 10° SSE
SPOT 5 3.6 22:11:38 10° S 22:16:10 51° W 22:21:00 10° NNW
USA 245 1.9 22:14:25 11° SSE 22:16:43 85° WSW 22:18:57 10° NNW
Cosmos 1869 4.4 22:13:33 10° N 22:17:15 32° ENE 22:20:30 12° SE
Cosmos 1980 3.8 22:11:43 10° NNW 22:17:25 75° ENE 22:22:45 12° SSE
Cosmos 292 Rocket 4.0 22:15:32 10° NNW 22:20:18 71° WSW 22:25:01 10° SSE
CZ-4C R/B 4.3 22:17:24 10° NW 22:23:04 29° NNE 22:29:19 10° E
Cosmos 1271 Rocket 2.8 22:19:41 10° NNW 22:23:34 83° WSW 22:27:27 10° S
IGS 5A 4.5 22:20:09 12° SE 22:23:38 34° ENE 22:27:24 10° N
Cosmos 1805 Rocket 4.1 22:19:53 10° SSW 22:24:17 61° WNW 22:28:42 10° N
Cosmos 2219 3.9 22:23:01 10° SW 22:28:43 61° WNW 22:34:26 10° NNE
Cosmos 1346 3.9 22:27:13 14° SSE 22:29:23 33° E 22:32:10 10° NNE
Cosmos 2237 Rocket 2.3 22:23:39 10° NNW 22:29:25 84° ENE 22:34:29 13° SSE
USA 234 4.5 22:25:12 10° ENE 22:31:23 46° NNW 22:37:33 10° W
H-2A R/B 2.4 22:27:08 12° SSE 22:31:58 58° ENE 22:37:20 10° N
Iridium 2 3.8 22:29:37 10° S 22:33:20 63° E 22:37:10 10° N
CZ-4C R/B 3.1 22:30:31 14° SSE 22:33:22 66° ENE 22:36:51 10° N
Cosmos 220 Rocket 4.0 22:29:25 10° SSW 22:33:47 70° ESE 22:38:14 10° NNE
DELTA 2 DEB (DPAF) 4.2 22:29:50 13° SSE 22:33:52 74° ENE 22:38:22 10° N
Cosmos 1626 2.8 22:31:11 14° SSE 22:34:03 38° E 22:37:34 10° NNE
Landsat 7 3.9 22:32:29 13° SSE 22:36:44 74° ENE 22:41:30 10° N
Cosmos 1898 Rocket 3.6 22:32:56 10° SSW 22:38:07 79° WNW 22:43:23 10° NNE
Cosmos 2082 4.0 22:33:15 10° S 22:38:44 50° ESE 22:44:14 10° NE
Cosmos 1703 3.2 22:34:58 10° S 22:38:52 85° E 22:42:49 10° N
SL-14 R/B 4.1 22:36:14 10° SSW 22:40:07 53° WNW 22:44:06 10° N
YAOGAN 6 3.9 22:37:18 10° SSW 22:40:38 35° W 22:43:59 10° NNW
Cosmos 1125 Rocket 4.5 22:40:43 15° SSE 22:44:19 30° E 22:48:54 10° NE
SPOT 1/Viking Rocket 4.2 22:39:37 10° S 22:44:38 53° W 22:49:42 10° NNW
Terra 1.8 22:48:51 16° SSE 22:52:36 74° ENE 22:57:22 10° N
SL-08 RB Rocket 4.2 22:49:12 12° S 22:53:20 56° W 22:57:47 10° NNW
Tiangong 1 1.9 22:52:49 10° WSW 22:55:34 29° S 22:56:26 24° SE
ERBS 2.3 22:53:24 10° SW 22:56:51 58° SE 23:00:16 10° ENE
NOSS 3-1 (A) 3.7 22:53:30 10° SW 22:59:31 75° NW 23:06:19 10° NE
SAR-Lupe-2 3.6 22:58:17 21° SSE 23:00:32 73° ENE 23:04:07 10° N
Cosmos 1470 Rocket 3.6 22:56:36 10° SSW 23:00:55 81° W 23:05:15 10° N
Cosmos 1933 Rocket 3.6 22:57:29 10° S 23:01:55 83° W 23:06:25 10° N
Cosmos 1703 Rocket 4.0 22:58:05 10° N 23:02:20 47° ENE 23:05:01 21° SE
Cosmos 1241 Rocket 4.4 22:57:13 10° SSW 23:03:23 75° ESE 23:09:41 10° NE
Spot 4 3.9 23:00:38 19° SSE 23:04:10 76° ENE 23:09:03 10° N
Cosmos 1900 4.3 23:02:46 10° NW 23:07:46 78° WSW 23:11:02 21° SSE
Nadezhda 1 Rocket 4.3 23:05:09 10° NNW 23:11:09 62° W 23:16:39 13° S
Cosmos 2227 Rocket 2.2 23:05:34 10° SSW 23:11:14 88° ESE 23:16:57 10° NNE
Lacrosse 4 Rocket 1.5 23:09:14 10° NNW 23:13:40 88° WSW 23:16:24 23° SSE
BREEZE-M DEB (TANK) 4.2 23:12:41 22° SSE 23:13:44 25° ESE 23:19:50 10° ENE
Aureole 2 Rocket 3.7 23:13:35 10° N 23:16:21 27° ENE 23:17:59 19° ESE
Cosmos 1455 3.1 23:13:51 10° NNW 23:17:29 43° W 23:20:13 16° SSW
COS B Rocket 3.9 23:16:11 10° NNE 23:19:54 42° E 23:21:51 25° SE
Cosmos 2221 Rocket 3.7 23:17:05 10° N 23:21:40 71° E 23:24:18 25° SSE
ATLAS 2AS CENTAUR R/B 3.0 23:14:15 10° SSW 23:21:49 74° SE 23:29:56 10° NE
DMSP B5D2-2 4.0 23:18:58 10° NNE 23:24:14 87° ESE 23:28:35 15° SSW
SL-16 R/B 2.2 23:18:45 10° NNW 23:24:28 81° WSW 23:28:09 23° SSE
Cosmos 1933 3.3 23:20:54 10° N 23:24:59 88° E 23:27:12 26° S
Cosmos 2333 Rocket 3.4 23:22:12 10° NW 23:27:18 33° WSW 23:31:34 14° SSW
ATLAS 3B R/B 2.8 23:22:23 10° NW 23:29:23 67° WSW 23:33:49 22° SSE
Cosmos 1709 Rocket 3.9 23:32:07 17° S 23:36:56 90° E 23:43:05 10° N
Cosmos 2297 Rocket 2.2 23:32:12 10° SSW 23:37:52 83° WNW 23:43:34 10° NNE
Cosmos 2219 Rocket 4.0 23:33:56 10° NW 23:37:59 21° W 23:42:02 10° SSW
COSMOS 2455 3.2 23:34:43 10° NW 23:40:35 55° WSW 23:44:11 23° S
Cosmos 1340 Rocket 4.4 23:40:41 19° ESE 23:41:33 20° E 23:44:29 10° NE
USA 238 DEB 3.8 23:37:25 10° NW 23:44:31 85° NE 23:49:31 21° SE
USA 238 3.8 23:37:31 10° NW 23:44:37 84° NE 23:49:38 21° SE
Cosmos 1932 4.5 23:45:52 10° NW 23:52:18 87° SW 23:56:21 25° SSE
H-2A R/B 3.9 23:50:49 10° NE 23:54:21 25° E 23:55:27 22° ESE
